FENGYUN 1C DEB

Satellite information

Favourite Embed

Satellite Type and Status

DEBRISIN ORBIT

Key statistics

Satellite FENGYUN 1C DEB at a glance.

Uptime

9609

Days in orbit

Revolutions

≈ 14.1

Per day

Orbit

SSO

Sun Synchronous Orbit

Inclination

98.7

Latest

Satellite identification and parameters

Extended collection of information and parameters for FENGYUN 1C DEB.

Object identification

Identified? True

Debris? True

Object name: FENGYUN 1C DEB

International designator: 1999-025BDK

Object number (NORAD): 31017

Object ID (CCSDS): 31017

Country: PEOPLES REPUBLIC OF CHINA (PRC)

Current information (Y/N): Y

RCS size: SMALL

Orbital parameters

Period: 102.226 minutes

Inclination: 98.6696 deg

SMA: 7242.167 km

Apoapsis: 945.314 km

Periapsis: 782.75 km

RAAN: 229.4068 deg

Eccentricy: 0.01122339

Argument of periapsis: 294.3903 deg

Mean anomaly: 80.268 deg

Mean motion: 14.08639817 rev/day

Mean motion (dot): 0.00000594 rev/day2

B* drag term: 0.00034929593 1/REarth

Two-line elements (TLE)

Creation date: Aug. 27, 2025, 12:18 p.m.

Reference frame: TEME

Reference center: EARTH

Epoch: Aug. 27, 2025, 6:09 a.m. UTC

TLE line 0: 0 FENGYUN 1C DEB

TLE line 1: 1 31017U 99025BDK 25239.25633468 .00000594 00000-0 34930-3 0 9995

TLE line 2: 2 31017 98.6696 229.4068 0112234 294.3903 80.2680 14.08639817947834

Live tracking on map

Real-time ground track for satellite FENGYUN 1C DEB.

In-orbit conjunctions

A list of the most updated potential collisions computed for object FENGYUN 1C DEB.

Target Orbit TCA Probability of collision Miss distance Type
SL-16 DEB LEO 2024-09-28 00:47:27 0.0002863233 406.0 (m) DEBRIS
COSMOS 1275 DEB LEO 2024-08-21 23:44:39 0.0001474195 132.0 (m) DEBRIS
METEOR 2-8 DEB LEO 2024-07-28 13:10:33 0.000223718 111.0 (m) DEBRIS

Associated space launch

Chinese polar orbiting meteorological satellite

FENGYUN 1C DEB was lifted into orbit during the mission ‘Long March 4B | Feng Yun 1C’, on board a Long March 4B space rocket.

The launch took place on May 10, 1999, 1:33 a.m. from Launch Complex 7.

For more information about the launch, click the button.

Launch to space Long March 4B | Feng Yun 1C
Long March 4B | Feng Yun 1C

Agency: N/A

Status: Launch Successful

Launch date: May 10, 1999, 1:33 a.m. UTC

Rocket: Long March 4B

Launch pad: Launch Complex 7

Location: Taiyuan Satellite Launch Center, People's Republic of China

...

Latest news about this satellite

There are no fresh news available about this satellite. Check back as we update our databases every day.


Newsletter sign-up

Weekly statistics, charts and insights to help you stay on top of the space industry.